| Temperature (°F) | Max | Average | Min |
|---|---|---|---|
| Max Temperature | 50 | 36.43 | 17 |
| Avg Temperature | 37.92 | 28.4 | 8.75 |
| Min Temperature | 35 | 21.11 | 1 |
| Dew Point (°F) | Max | Average | Min |
|---|---|---|---|
| Dew Point | 37 | 17.16 | -13 |
| Precipitation (in) | Max | Average | Min | Sum |
|---|---|---|---|---|
| Precipitation | 0.22 | 0.02 | 0.00 | 0.46 |
| Snowdepth | 0.00 | 0.00 | 0.00 | 0.00 |
| Wind (mph) | Max | Average | Min |
|---|---|---|---|
| Wind | 32 | 9.6 | 0 |
| Gust Wind | 52 | 7.95 | 0 |
| Sea Level Pressure (in) | Max | Average | Min |
|---|---|---|---|
| Sea Level Pressure | 29.76 | 29.46 | 28.98 |
| Date | Temperature (°F) | Dew Point (°F) | Humidity (%) | Wind Speed (mph) | Pressure (in) | Precipitation (in) | ||||||||||
|---|---|---|---|---|---|---|---|---|---|---|---|---|---|---|---|---|
| Max | Avg | Min | Max | Avg | Min | Max | Avg | Min | Max | Avg | Min | Max | Avg | Min | ||
| 2/28/2026 | 41 | 36.2 | 25 | 37 | 29.7 | 21 | 89 | 78.3 | 59 | 14 | 3.5 | 0 | 29.6 | 29.6 | 29.5 | 0.00 |
| 2/27/2026 | 50 | 31.9 | 25 | 28 | 20.5 | 13 | 85 | 64.1 | 45 | 12 | 5.1 | 0 | 29.7 | 29.6 | 29.5 | 0.00 |
| 2/26/2026 | 42 | 36.0 | 20 | 27 | 22.7 | 18 | 85 | 59.8 | 40 | 12 | 4.8 | 0 | 29.5 | 29.4 | 29.2 | 0.03 |
| 2/25/2026 | 45 | 31.7 | 27 | 28 | 24.1 | 9 | 88 | 74.3 | 57 | 8 | 3.7 | 0 | 29.4 | 29.2 | 29.1 | 0.07 |
| 2/24/2026 | 42 | 25.1 | 15 | 17 | 11.2 | 8 | 74 | 56.1 | 45 | 24 | 13.0 | 0 | 29.5 | 29.4 | 29.3 | 0.14 |
| 2/23/2026 | 30 | 29.7 | 15 | 26 | 23.6 | 15 | 88 | 78.9 | 54 | 32 | 24.2 | 13 | 29.3 | 29.1 | 29.0 | 0.22 |
| 2/22/2026 | 34 | 31.8 | 28 | 32 | 28.2 | 26 | 92 | 86.4 | 82 | 23 | 11.2 | 0 | 29.6 | 29.5 | 29.2 | 0.00 |
| 2/21/2026 | 37 | 37.9 | 30 | 32 | 30.5 | 29 | 92 | 75.7 | 55 | 16 | 7.4 | 0 | 29.6 | 29.5 | 29.2 | 0.00 |
| 2/20/2026 | 45 | 34.9 | 33 | 33 | 31.2 | 28 | 92 | 86.8 | 76 | 23 | 10.3 | 5 | 29.5 | 29.3 | 29.1 | 0.00 |
| 2/19/2026 | 36 | 35.9 | 33 | 32 | 24.8 | 20 | 82 | 64.4 | 50 | 12 | 6.3 | 3 | 29.6 | 29.6 | 29.4 | 0.00 |
| 2/18/2026 | 38 | 35.0 | 35 | 37 | 32.4 | 27 | 97 | 90.3 | 85 | 6 | 1.8 | 0 | 29.6 | 29.4 | 29.3 | 0.00 |
| 2/17/2026 | 39 | 37.0 | 29 | 35 | 30.7 | 25 | 89 | 78.2 | 65 | 7 | 2.7 | 0 | 29.7 | 29.6 | 29.6 | 0.00 |
| 2/16/2026 | 46 | 31.5 | 27 | 24 | 21.5 | 20 | 82 | 67.3 | 46 | 9 | 4.9 | 0 | 29.7 | 29.6 | 29.6 | 0.00 |
| 2/15/2026 | 41 | 31.8 | 25 | 26 | 23.1 | 20 | 85 | 70.9 | 59 | 12 | 6.3 | 0 | 29.6 | 29.6 | 29.5 | 0.00 |
| 2/14/2026 | 38 | 33.5 | 23 | 25 | 19.9 | 11 | 78 | 58.2 | 47 | 16 | 5.0 | 0 | 29.6 | 29.6 | 29.5 | 0.00 |
| 2/13/2026 | 43 | 27.5 | 24 | 15 | 12.2 | 8 | 65 | 53.3 | 41 | 14 | 7.7 | 0 | 29.7 | 29.6 | 29.6 | 0.00 |
| 2/12/2026 | 36 | 30.3 | 18 | 19 | 14.7 | 11 | 59 | 52.5 | 44 | 28 | 16.8 | 9 | 29.6 | 29.5 | 29.3 | 0.00 |
| 2/11/2026 | 36 | 35.1 | 24 | 28 | 23.3 | 18 | 85 | 62.8 | 50 | 25 | 13.0 | 3 | 29.3 | 29.3 | 29.2 | 0.00 |
| 2/10/2026 | 39 | 27.7 | 31 | 25 | 12.5 | 5 | 79 | 54.2 | 38 | 10 | 5.4 | 0 | 29.7 | 29.5 | 29.2 | 0.00 |
| 2/9/2026 | 32 | 17.6 | 21 | 9 | 0.3 | -6 | 58 | 47.7 | 34 | 21 | 12.8 | 0 | 29.8 | 29.7 | 29.7 | 0.00 |
| 2/8/2026 | 28 | 8.8 | 6 | -2 | -7.6 | -13 | 56 | 47.9 | 41 | 28 | 20.6 | 16 | 29.7 | 29.6 | 29.5 | 0.00 |
| 2/7/2026 | 17 | 15.2 | 1 | 20 | 3.9 | -12 | 84 | 61.9 | 44 | 32 | 21.2 | 5 | 29.5 | 29.2 | 29.0 | 0.00 |
| 2/6/2026 | 25 | 24.6 | 4 | 21 | 11.7 | 6 | 85 | 59.1 | 43 | 8 | 4.7 | 0 | 29.4 | 29.2 | 29.1 | 0.00 |
| 2/5/2026 | 31 | 22.7 | 16 | 12 | 8.9 | 7 | 71 | 56.7 | 40 | 12 | 7.3 | 0 | 29.6 | 29.5 | 29.4 | 0.00 |
| 2/4/2026 | 32 | 26.5 | 15 | 16 | 10.9 | 7 | 63 | 52.4 | 40 | 20 | 7.3 | 0 | 29.7 | 29.7 | 29.6 | 0.00 |
| 2/3/2026 | 32 | 23.7 | 18 | 17 | 10.5 | 4 | 69 | 57.9 | 49 | 10 | 5.5 | 0 | 29.7 | 29.6 | 29.6 | 0.00 |
| 2/2/2026 | 31 | 22.6 | 11 | 11 | 5.4 | -2 | 61 | 48.4 | 37 | 24 | 16.5 | 7 | 29.6 | 29.5 | 29.4 | 0.00 |
| 2/1/2026 | 34 | 13.3 | 12 | 3 | -0.2 | -3 | 64 | 55.5 | 46 | 26 | 20.0 | 14 | 29.5 | 29.4 | 29.3 | 0.00 |